Location: Bannatyne
(13.0833°N, 59.5333°W)
Time: 18:04:27
(UTC+00:00)

Vanguard 3 - Pass Details

Date: 27 January 2020
Orbit: 508 x 3263 km, 33.3° (Epoch: 22 February)

Event Time Altitude Azimuth Distance (km) Brightness Sun altitude
Rises 03:49:37 0° 302° (WNW) 6,141 - -82.5°
Reaches altitude 10° 03:54:21 10° 303° (WNW) 4,702 - -83.2°
Maximum altitude 04:06:20 89° 31° (NNE) 1,352 - -84.4°
Drops below altitude 10° 04:12:47 10° 123° (ESE) 2,646 - -84.5°
Sets 04:14:47 0° 123° (ESE) 3,363 - -84.4°
